RH
30 33 39 39 50 67 61 19 14 14 13 12 13 14 27 39 37 16 12 13 10 8 10 16 19 23 32 31 32 40 45 46 46
46 32 36 41 42 50 80 38 14 12 13 12 12 14 21 34 33 21 11 13 10 9 14 18 20 29 34 33 34 40 46 45 47
54 60 38 41 41 49 54 62 26 18 13 12 11 12 15 20 28 22 11 14 11 10 15 21 22 29 34 34 36 40 44 45 50
58 62 49 41 42 45 54 62 41 34 24 13 12 11 10 11 11 10 11 14 13 12 15 18 22 31 34 34 39 40 40 46 53
68 60 53 48 46 46 50 59 69 49 43 29 17 12 10 10 10 11 10 13 14 12 17 21 22 28 31 35 39 41 41 45 52
75 74 63 58 54 51 53 60 60 61 53 47 34 26 14 11 10 11 12 14 15 14 15 20 22 26 30 33 39 42 44 46 53
79 81 78 72 64 60 57 55 62 62 58 55 47 40 30 14 11 10 11 13 17 16 16 20 22 23 27 29 40 44 46 47 53
74 81 87 86 81 74 70 63 57 66 63 61 56 53 46 32 15 11 11 12 14 17 16 20 25 23 24 28 41 44 47 52 52
78 76 82 87 91 89 82 79 73 70 69 67 63 59 56 52 35 17 12 12 13 15 16 16 22 24 23 27 40 46 48 55 56
68 72 74 77 90 88 93 86 87 81 82 75 69 66 62 58 55 39 21 13 12 14 16 17 18 22 23 22 34 47 49 55 58
62 73 75 74 82 86 94 95 95 94 94 89 83 79 74 66 61 58 42 25 15 14 14 17 17 19 23 23 27 41 48 53 59
59 68 75 77 78 88 95 90 96 94 91 92 94 92 88 78 70 65 62 45 31 17 14 15 17 18 20 24 25 40 48 51 59
44 65 72 80 98 99 91 87 82 81 84 95 90 96 97 95 86 76 68 67 49 36 19 16 16 18 18 20 24 32 48 50 57
43 47 69 79 80 92 100 96 82 79 74 77 85 88 89 97 96 91 81 72 70 55 38 24 17 16 18 18 22 26 40 48 52
24 33 41 68 85 78 84 92 98 86 78 74 72 82 83 91 91 89 87 84 76 72 62 46 30 18 18 18 19 25 28 47 52
18 20 28 41 50 76 84 83 85 88 92 92 84 85 88 95 83 62 61 82 86 77 77 72 59 34 21 19 20 20 27 32 50
8 10 18 21 36 46 56 70 73 76 78 85 99 98 87 90 88 75 68 62 78 84 87 78 80 61 54 22 20 20 22 29 38
20 15 11 11 18 23 38 46 52 64 68 72 77 87 85 89 87 90 92 77 70 61 68 87 90 83 66 51 50 29 22 25 29
42 30 20 20 13 12 18 24 39 46 50 61 65 73 76 77 81 98 99 98 76 68 56 62 81 92 88 70 64 72 33 75 30
38 42 39 28 26 20 13 13 19 24 41 45 49 55 60 75 83 77 75 77 73 67 52 46 64 75 87 99 80 83 85 87 33
Wind_Speed
8 6 5 4 3 4 6 7 6 5 5 6 5 4 3 1 2 3 2 2 3 5 5 5 5 4 5 5 5 7 7 8 8
8 8 8 7 5 4 6 8 7 7 5 5 6 4 3 2 2 3 2 2 3 4 6 5 5 5 5 4 4 5 6 8 9
11 9 10 9 7 7 7 8 8 7 6 5 5 4 3 2 3 4 3 3 2 4 4 5 6 5 3 2 2 4 5 7 8
14 13 11 11 10 9 9 8 7 8 9 7 6 5 4 3 1 3 2 3 3 3 4 3 3 4 3 1 1 3 6 8 8
17 15 15 14 12 11 10 10 8 7 7 9 8 6 4 4 2 3 3 3 3 4 4 4 4 4 3 2 2 4 7 8 7
19 18 18 17 16 14 13 12 12 10 8 8 7 7 7 5 5 5 5 6 6 7 6 6 5 5 5 4 4 5 7 8 7
22 22 21 20 19 18 16 15 14 12 12 11 9 8 7 6 5 6 6 6 7 8 8 7 7 7 7 5 5 6 7 8 7
25 25 25 24 22 21 19 17 15 14 14 14 12 9 8 7 7 7 6 8 8 8 9 8 8 8 8 8 7 6 7 8 8
29 29 29 28 27 25 23 21 18 19 17 16 15 13 10 8 7 8 8 8 9 9 9 9 9 9 10 10 9 8 8 8 9
33 33 32 32 31 29 27 24 22 22 20 20 18 16 14 12 9 9 9 9 9 10 11 11 11 11 11 12 11 10 9 9 10
36 36 35 35 33 31 30 28 26 25 25 23 23 21 19 16 13 12 11 11 10 11 12 12 13 14 13 13 13 13 12 11 11
40 39 38 38 36 35 33 32 30 29 28 28 26 25 23 21 17 16 14 15 12 12 13 14 15 16 16 16 16 16 15 13 12
47 45 44 39 39 38 37 36 35 34 33 32 29 29 28 26 23 20 18 18 16 14 14 14 15 16 17 18 18 18 17 15 13
54 52 50 49 45 45 39 42 41 39 37 36 34 32 31 30 28 24 22 20 19 18 17 16 16 17 18 19 20 20 19 18 17
59 59 57 54 54 54 49 46 39 44 40 38 39 38 36 36 33 30 27 24 22 21 20 19 18 18 19 20 21 21 21 20 20
61 63 64 63 62 59 56 53 48 45 41 42 43 40 39 39 40 34 33 30 25 24 22 22 21 19 19 20 21 22 23 23 22
58 62 65 67 67 66 64 59 57 54 49 50 41 44 43 43 41 37 38 30 30 28 25 23 23 22 23 20 22 24 25 25 24
58 58 60 64 67 71 71 67 63 60 56 52 50 50 50 48 43 42 42 34 32 29 28 26 23 25 25 23 24 26 23 25 27
55 59 61 61 62 66 70 71 70 64 64 59 57 55 51 51 49 39 40 38 37 33 33 32 30 27 28 28 31 26 29 28 31
49 50 56 61 62 61 63 66 69 71 69 66 62 60 58 54 53 51 49 45 43 41 39 35 36 33 30 30 35 30 29 24 30
Wind_Direction
282 284 281 276 272 273 273 304 307 317 325 326 321 316 289 246 279 290 219 164 149 152 153 145 129 117 99 73 50 46 37 35 29
276 278 278 275 279 273 267 309 309 314 325 327 330 334 325 315 279 309 280 203 179 173 165 159 151 137 116 91 49 37 34 24 19
260 265 270 273 273 271 271 286 303 311 317 321 332 335 333 340 310 309 300 270 227 198 185 176 166 154 141 117 57 20 21 20 22
265 262 260 261 266 269 274 279 297 311 316 321 324 332 333 324 320 288 273 265 256 235 216 218 201 178 176 159 13 3 6 2 12
266 262 261 260 256 259 264 270 263 278 297 310 316 320 323 313 271 237 226 227 237 231 232 227 223 223 241 252 308 341 352 354 354
263 262 259 258 257 255 253 258 266 269 273 281 294 310 313 314 296 271 237 213 209 219 213 218 223 233 245 263 291 322 340 348 344
261 260 259 257 256 253 254 253 255 262 266 269 278 290 302 308 295 284 279 255 233 229 219 224 223 226 239 254 271 303 330 337 340
258 259 258 258 257 256 251 252 257 251 254 261 264 273 286 297 296 290 275 262 253 249 248 234 240 236 243 247 258 284 310 324 333
255 258 258 257 256 256 253 248 246 247 249 248 258 266 269 271 279 286 286 271 261 258 253 250 248 248 249 253 257 270 292 309 313
252 254 256 257 254 253 251 248 246 243 245 246 250 258 264 266 263 266 273 274 266 255 250 250 245 244 246 254 260 268 279 295 301
247 251 254 253 252 251 248 247 243 245 245 245 249 253 256 259 262 260 262 268 265 263 259 254 253 248 244 246 251 259 270 282 291
245 245 250 254 250 248 246 244 244 246 246 250 250 254 256 256 255 258 256 258 258 260 261 260 256 253 250 248 249 253 261 272 284
249 245 243 246 251 250 244 244 247 247 249 248 249 251 255 256 255 251 250 255 257 256 257 258 258 257 255 252 252 254 258 266 276
251 249 245 244 246 244 248 251 249 250 249 250 251 246 248 251 254 252 249 248 252 255 254 257 258 258 257 256 253 253 257 263 269
249 250 249 245 245 246 246 241 247 252 251 249 250 249 246 243 246 248 248 248 249 251 258 260 261 261 260 259 257 256 257 259 263
249 247 246 246 246 245 247 247 245 247 247 248 248 248 247 249 249 243 248 243 248 247 255 260 265 262 264 259 258 256 255 255 260
251 250 248 246 246 246 245 246 248 248 246 249 249 252 254 248 251 253 254 248 245 244 248 251 262 263 266 261 260 256 253 253 254
250 249 249 248 246 245 246 244 244 248 247 247 250 248 249 253 250 249 252 256 244 252 256 249 253 255 256 256 253 258 256 259 258
253 247 247 248 246 245 246 246 244 243 245 245 245 251 252 254 256 248 249 255 254 253 256 258 254 250 252 250 255 257 248 277 256
258 251 246 246 248 247 242 243 244 243 243 245 245 247 252 254 253 258 260 258 259 254 257 260 252 254 256 253 253 263 267 255 251